THOR ABLESTAR DEB, 4014

Orbit data source: Space-Track

THOR ABLESTAR DEB, 4014 is space debris in LEO originally from a launch on Thu, 29 Jun 1961 UTC launched from the Air Force Eastern Test Range (AFETR). Debris objects in space refer to the collection of defunct objects orbiting the Earth. Examples of debris include non-operational satellites, rocket bodies, and fragments generated from explosions, collisions, or faulty payload assembly.

Loading next visibility...
Identifier
4014, 1961-015JM
Orbit
LEO
Country
Flag of USUS
Related business
Manufacturer
Unknown
Mission
Spacecraft
Bus & Motor
Unknown
Mass
Unknown
Launch date (UTC)
1961-06-29 (65 years ago)
Launch vehicle
Unknown
Launch site
Air Force Eastern Test Range (AFETR)
Object type
Payload
Rocket body
Debris
Shape & HBR
Unknown shape, 0.1 m
Radar Cross Section
Small (<0.1 m²)

Expand to show TLE details & history
Last TLE update: 19 hours ago

TLE from 19 hours ago
0 THOR ABLESTAR DEB
1  4014U 61015JM  26119.60384918 -.00000201  00000-0 -42892-3 0  9993
2  4014  67.6238 313.1488 0818621  17.5404  37.9809 12.30219076908394
Epoch: 2026-04-29T14:29Z
TLE epoch observation values (Epoch: 2026-04-29T14:29:32.569Z)
Latitude
54.68761°
Longitude
-86.47879°
Altitude
1,067.281 km
Speed
7.547 km/s
True Right ascension
23h 13m 52s
True Declination
54° 31' 55"
Sunlit
Object was in daylight at epoch
Visualization orbit readout
Latitude
Unknown
Longitude
Unknown
Altitude
Unknown
Speed
Unknown
Apparent Right ascension
Unknown
Apparent Declination
Unknown
Sunlit
N/A
Visualization observer readout
Local Sidereal Time
17:27:18
Azimuth
Unknown
Elevation
Unknown
Doppler factor
Unknown
Orbital elements
Apogee altitude
2,195.508 km
Perigee altitude
898.01 km
Semi-major axis
7,924.896 km
Eccentricity
0.08186
Inclination
67.6238°
RAAN
313.1488°
Arg. of periapsis
17.5404°
True anomaly
44.24565°
Mean anomaly
37.9809°
Eccentric anomaly
41.06187°
Mean motion
3.07647 °/min
Orbital period
117.02 mins
BSTAR
-0.00042892
Loading maneuver chart data...
Computing Atmospheric mass density...

Documentation

Showing up to 5 results
|